Flag for Germany Weather past 2 weeks in Wolfsburg, Lower Saxony, Germany

Now
59 °F

Broken clouds.


Feels Like: 58 °F
Forecast: 48 / 61 °F
Wind: 7 mph from West

Location: Braunschweig

Current Time: Sep 23, 2014 at 2:52:00 PM

Latest Report: Sep 23, 2014 at 2:20 PM


Visibility: N/A

Pressure: 30.12 "Hg

Humidity: 55%

Dew point: 43 °F

Location of WolfsburgLocation

Historic Weather in Wolfsburg — Graph

°F

Wolfsburg temperature yesterday

Maximum temperature yesterday: 57 °F (at 2:20 PM)
Minimum temperature yesterday: 50 °F (at 10:20 AM)
Average temperature yesterday: 54 °F

Past Weeks' High & Low Weather Summary

 TemperatureHumidityPressure
High75 °F (Sep 16, 3:20 PM)100% (Sep 9, 6:50 AM)30.21 "Hg (Sep 9, 6:50 AM)
Low43 °F (Sep 23, 7:20 AM)47% (Sep 17, 3:50 PM)29.89 "Hg (Sep 18, 2:20 PM)
Average62 °F80%30.02 "Hg
* Reported Sep 8 1:20 PM — Sep 23 1:50 PM, Wolfsburg, Weather by CustomWeather, © 2014

Note: Actual official high and low records may vary slightly from our data, if they occured in-between our weather recording intervals... More about our weather records

Advertising

Wolfsburg weather history for previous 24 hours

 ConditionsComfort  
Time TempWeatherWind HumidityBarometerVisibility
1:50 PM
Sep 23
57 °FScattered clouds.8 mph59%30.12 "HgN/A
1:20 PM57 °FScattered clouds.7 mph59%30.12 "HgN/A
12:50 PM57 °FScattered clouds.8 mph59%30.12 "HgN/A
12:20 PM57 °FScattered clouds.6 mph55%30.12 "HgN/A
11:50 AM57 °FPassing clouds.6 mph59%30.15 "HgN/A
11:20 AM54 °FPassing clouds.5 mph63%30.12 "HgN/A
10:50 AM54 °FPassing clouds.7 mph67%30.15 "HgN/A
10:20 AM52 °FPassing clouds.8 mph72%30.12 "HgN/A
9:50 AM50 °FPassing clouds.6 mph76%30.12 "HgN/A
9:20 AM50 °FPassing clouds.6 mph82%30.12 "HgN/A
8:50 AM48 °FPassing clouds.6 mph87%30.12 "HgN/A
8:20 AM46 °FSunny.6 mph93%30.12 "Hg10 mi
7:50 AM43 °FPassing clouds.5 mph100%30.12 "HgN/A
7:20 AM43 °FClear.5 mph93%30.09 "Hg10 mi
6:50 AM45 °FPassing clouds.3 mph93%30.09 "HgN/A
9:20 PM
Sep 22
55 °FPassing clouds.10 mph63%30.01 "HgN/A
8:50 PM55 °FPassing clouds.12 mph63%30.01 "HgN/A
8:20 PM55 °FPassing clouds.13 mph63%30.01 "HgN/A
7:50 PM55 °FOvercast.12 mph63%29.98 "HgN/A
7:20 PM54 °FDrizzle. Partly sunny.12 mph72%29.98 "HgN/A
6:50 PM54 °FDrizzle. Broken clouds.12 mph67%29.98 "HgN/A
6:20 PM54 °FDrizzle. Broken clouds.10 mph67%29.98 "HgN/A
5:50 PM55 °FPassing clouds.10 mph59%29.98 "HgN/A
5:20 PM55 °FPassing clouds.12 mph55%29.95 "HgN/A
4:50 PM57 °FPartly sunny.14 mph51%29.95 "HgN/A
4:20 PM57 °FPassing clouds.14 mph51%29.95 "HgN/A
3:50 PM57 °FPassing clouds.18 mph48%29.92 "HgN/A
3:20 PM57 °FPassing clouds.15 mph51%29.92 "HgN/A
2:50 PM57 °FBroken clouds.14 mph51%29.92 "HgN/A
2:20 PM57 °FScattered clouds.17 mph51%29.92 "HgN/A
Weather by CustomWeather, © 2014

See weather overviewHow to use our weather pages